SCP
0 -0 0 0 0 0 0 0 0 0 0 0 0 0 0 0 0 0 0 0 0 0 0 0 0 0 0 0 0 0 0 0
0 0 0 0 0 0 0 0 0 0 0 0 0 0 0 0 0 0 0 0 0 0 0 0 0 0 0 0 0 0 0 0
0 0 0 0 0 0 0 0 0 0 0 0 0 0 0 0 0 0 0 0 0 0 0 -0 -0 0 0 0 0 0 0 0
0 0 0 0 0 0 0 0 0 0 0 0 0 0 0 0 0 0 0 0 0 0 0 0 0 0 0 0 0 0 0 0
0 0 0 0 0 0 0 0 0 0 0 0 0 0 0 0 0 0 0 0 0 0 0 0 0 0 0 0 0 0 0 0
0 0 0 0 0 0 0 0 0 0 0 0 0 0 0 0 0 0 0 0 0 0 0 0 0 0 0 0 0 0 0 0
0 0 0 0 0 0 0 0 0 0 0 0 0 0 0 0 0 0 0 0 0 0 0 0 0 0 0 0 0 0 0 0
0 0 0 0 0 0 0 0 0 0 0 0 0 0 0 0 0 0 0 0 0 0 0 0 0 0 0 0 0 0 0 0
0 0 0 0 0 0 0 0 0 0 0 0 0 0 0 0 0 0 0 0 0 0 0 0 0 0 0 0 0 0 0 0
0 0 0 0 0 0 0 0 0 0 0 0 0 0 0 0 0 0 0 0 0 0 0 0 0 0 0 0 0 0 0 0
0 0 0 0 0 0 0 0 0 0 0 0 0 0 0 0 0 0 0 0 0 0 0 0 0 0 0 0 0 0 0 0
0 0 0 0 0 0 0 0 0 0 0 0 0 0 0 0 0 0 0 0 0 0 0 0 0 0 0 0 0 0 0 0
0 0 0 0 0 0 0 0 0 0 0 0 0 0 0 0 0 0 0 0 0 0 0 0 0 0 0 0 0 0 0 0
0 0 0 0 0 0 0 0 0 0 0 0 0 0 0 0 0 0 0 0 0 0 0 0 0 0 0 0 0 0 0 0
0 0 0 0 0 0 0 0 0 0 0 0 0 0 0 0 0 0 0 0 0 0 0 0 0 0 0 0 0 0 0 0
0 0 0 0 0 0 0 0 0 0 0 0 0 0 0 0 0 0 0 0 0 0 0 0 0 0 0 0 0 0 0 0
0 0 0 0 0 0 0 0 0 0 0 0 0 0 0 0 0 0 0 0 0 0 0 0 0 0 0 0 -0 0 0 0
0 0 0 0 0 0 0 0 0 0 0 0 0 0 0 0 0 0 0 0 0 0 0 -0 -0 0 0 0 0 0 0 0
0 0 0 0 0 0 0 0 0 0 0 0 0 0 0 0 0 0 0 0 0 0 0 0 0 0 0 0 0 0 0 0
Wind_Speed_500mb
69 68 82 74 75 75 68 62 56 51 43 37 29 21 17 14 11 11 12 13 13 13 15 18 22 26 29 29 23 29 36 37
69 72 78 76 81 77 70 64 58 51 46 39 30 24 19 12 9 10 9 10 11 13 17 22 26 29 30 30 29 31 37 33
70 72 77 79 87 77 70 62 56 50 41 34 27 22 17 13 14 15 15 13 13 16 20 27 31 33 33 33 30 36 35 32
72 70 70 81 86 78 69 63 55 48 42 35 30 23 19 17 19 18 14 13 15 21 26 30 31 33 33 33 28 31 32 31
75 77 80 91 86 74 68 61 54 46 43 36 29 21 18 21 24 17 10 11 15 20 23 25 27 29 31 30 32 37 31 27
79 81 85 90 78 74 68 63 57 51 45 38 32 27 22 23 24 15 10 11 17 20 22 20 22 27 29 30 34 38 38 34
70 78 80 79 76 76 72 68 59 53 48 41 34 29 25 24 21 13 13 17 19 20 20 23 24 24 24 26 33 40 41 41
71 74 81 87 87 80 74 67 63 58 50 45 37 31 25 24 16 12 15 18 20 21 21 22 23 21 21 22 22 26 34 36
66 82 84 83 87 85 80 74 67 62 55 48 41 34 30 27 17 18 18 18 19 21 23 23 22 20 20 20 20 20 22 22
75 79 80 84 88 91 84 78 69 65 59 52 46 39 35 28 24 23 20 21 22 24 25 25 26 25 23 22 21 21 22 20
66 79 85 88 91 90 84 79 72 69 60 53 47 40 37 31 29 24 21 24 26 27 28 28 26 25 24 24 23 23 20 19
75 77 84 91 89 90 87 80 75 72 64 58 51 45 42 35 34 28 26 28 30 31 30 28 27 27 27 26 24 22 20 17
84 79 88 89 89 93 89 84 79 73 67 60 52 47 46 42 39 32 31 32 35 34 32 31 30 29 27 26 24 23 21 18
64 68 86 90 91 88 92 87 81 76 70 65 59 54 51 47 43 36 35 37 39 39 36 33 31 30 29 28 26 23 21 18
75 72 83 89 89 89 91 88 83 76 72 71 65 60 54 49 45 39 40 41 42 41 39 36 33 32 31 29 27 24 21 18
71 76 76 81 84 85 88 88 83 77 74 74 68 61 54 52 49 46 45 45 44 43 43 41 38 36 35 32 28 24 20 18
54 62 66 80 83 84 84 84 82 76 76 74 67 64 59 56 53 51 49 48 49 49 48 45 43 41 36 33 29 25 22 20
42 51 60 72 77 80 78 78 75 74 74 72 67 65 62 59 56 54 54 53 53 53 51 49 45 42 40 36 33 29 25 21
16 33 46 58 63 69 74 79 77 73 75 72 70 67 64 61 58 57 56 55 56 55 54 52 47 45 42 39 35 32 29 25
Wind_Direction_500mb
196 198 198 195 191 189 188 182 185 189 187 186 192 199 206 218 213 199 196 195 193 181 166 163 163 168 172 171 173 162 160 151
197 192 198 195 191 187 186 186 191 193 189 191 194 196 202 201 190 176 172 157 156 154 152 153 156 161 175 179 178 172 165 159
191 191 193 189 187 186 186 192 192 191 197 198 195 195 194 186 171 159 147 139 141 144 143 147 150 162 177 190 193 175 181 168
185 193 192 187 186 187 188 189 193 194 197 196 191 194 195 183 169 153 142 138 144 152 155 161 164 177 187 193 203 204 194 192
193 196 192 187 187 187 189 190 194 196 199 197 199 199 198 184 168 153 156 166 166 164 169 174 170 182 193 202 213 213 219 217
192 195 196 190 190 191 191 193 194 199 197 195 195 195 192 186 181 184 195 194 177 177 186 175 177 188 197 210 218 220 224 230
193 197 199 196 197 196 195 193 197 196 194 194 196 199 198 195 196 215 201 185 180 179 173 171 176 182 193 209 222 228 229 231
193 197 197 199 199 199 197 196 198 195 195 196 199 196 196 195 207 206 189 190 189 179 173 176 175 176 186 196 204 210 219 226
193 205 205 205 202 199 199 199 197 197 196 195 200 199 200 200 201 189 186 186 185 181 178 177 165 168 170 172 176 183 188 200
199 204 210 208 201 200 201 201 199 202 196 196 203 203 203 206 199 190 188 189 186 183 178 179 168 166 163 158 161 167 164 169
193 202 209 207 204 203 203 204 202 202 197 199 205 207 204 208 199 197 193 192 189 188 184 178 170 165 164 164 166 164 161 158
195 196 206 208 208 206 206 205 204 202 201 202 205 206 206 207 202 197 195 194 192 192 187 182 174 171 171 169 167 163 158 156
199 195 202 206 212 209 207 207 206 203 205 205 207 210 208 206 203 201 196 193 193 194 191 189 182 175 176 172 171 165 160 157
190 192 199 206 211 210 208 209 206 205 207 209 210 213 209 206 207 204 200 195 196 194 194 195 190 182 181 179 176 172 166 160
187 191 199 209 212 212 210 209 209 211 210 211 212 215 208 208 209 208 203 200 198 198 197 196 194 189 186 188 184 179 172 166
190 195 197 205 208 210 211 211 213 212 211 211 213 211 206 209 208 209 204 202 200 200 201 197 195 194 194 192 189 185 179 175
194 195 197 204 206 206 207 209 211 209 207 208 208 204 205 207 208 207 205 202 202 201 201 202 200 200 195 194 195 192 187 183
197 202 205 210 207 205 202 202 203 202 202 203 202 202 204 204 206 205 205 204 203 203 203 204 203 203 199 199 197 195 194 195
196 212 212 214 209 206 203 201 197 198 198 200 201 202 202 203 205 206 206 205 206 207 206 206 205 204 203 203 202 201 201 202
Wind_Speed_850mb
69 68 82 74 75 75 68 62 56 51 43 37 29 21 17 14 11 11 12 13 13 13 15 18 22 26 29 29 23 29 36 37
69 72 78 76 81 77 70 64 58 51 46 39 30 24 19 12 9 10 9 10 11 13 17 22 26 29 30 30 29 31 37 33
70 72 77 79 87 77 70 62 56 50 41 34 27 22 17 13 14 15 15 13 13 16 20 27 31 33 33 33 30 36 35 32
72 70 70 81 86 78 69 63 55 48 42 35 30 23 19 17 19 18 14 13 15 21 26 30 31 33 33 33 28 31 32 31
75 77 80 91 86 74 68 61 54 46 43 36 29 21 18 21 24 17 10 11 15 20 23 25 27 29 31 30 32 37 31 27
79 81 85 90 78 74 68 63 57 51 45 38 32 27 22 23 24 15 10 11 17 20 22 20 22 27 29 30 34 38 38 34
70 78 80 79 76 76 72 68 59 53 48 41 34 29 25 24 21 13 13 17 19 20 20 23 24 24 24 26 33 40 41 41
71 74 81 87 87 80 74 67 63 58 50 45 37 31 25 24 16 12 15 18 20 21 21 22 23 21 21 22 22 26 34 36
66 82 84 83 87 85 80 74 67 62 55 48 41 34 30 27 17 18 18 18 19 21 23 23 22 20 20 20 20 20 22 22
75 79 80 84 88 91 84 78 69 65 59 52 46 39 35 28 24 23 20 21 22 24 25 25 26 25 23 22 21 21 22 20
66 79 85 88 91 90 84 79 72 69 60 53 47 40 37 31 29 24 21 24 26 27 28 28 26 25 24 24 23 23 20 19
75 77 84 91 89 90 87 80 75 72 64 58 51 45 42 35 34 28 26 28 30 31 30 28 27 27 27 26 24 22 20 17
84 79 88 89 89 93 89 84 79 73 67 60 52 47 46 42 39 32 31 32 35 34 32 31 30 29 27 26 24 23 21 18
64 68 86 90 91 88 92 87 81 76 70 65 59 54 51 47 43 36 35 37 39 39 36 33 31 30 29 28 26 23 21 18
75 72 83 89 89 89 91 88 83 76 72 71 65 60 54 49 45 39 40 41 42 41 39 36 33 32 31 29 27 24 21 18
71 76 76 81 84 85 88 88 83 77 74 74 68 61 54 52 49 46 45 45 44 43 43 41 38 36 35 32 28 24 20 18
54 62 66 80 83 84 84 84 82 76 76 74 67 64 59 56 53 51 49 48 49 49 48 45 43 41 36 33 29 25 22 20
42 51 60 72 77 80 78 78 75 74 74 72 67 65 62 59 56 54 54 53 53 53 51 49 45 42 40 36 33 29 25 21
16 33 46 58 63 69 74 79 77 73 75 72 70 67 64 61 58 57 56 55 56 55 54 52 47 45 42 39 35 32 29 25
Wind_Direction_850mb
196 198 198 195 191 189 188 182 185 189 187 186 192 199 206 218 213 199 196 195 193 181 166 163 163 168 172 171 173 162 160 151
197 192 198 195 191 187 186 186 191 193 189 191 194 196 202 201 190 176 172 157 156 154 152 153 156 161 175 179 178 172 165 159
191 191 193 189 187 186 186 192 192 191 197 198 195 195 194 186 171 159 147 139 141 144 143 147 150 162 177 190 193 175 181 168
185 193 192 187 186 187 188 189 193 194 197 196 191 194 195 183 169 153 142 138 144 152 155 161 164 177 187 193 203 204 194 192
193 196 192 187 187 187 189 190 194 196 199 197 199 199 198 184 168 153 156 166 166 164 169 174 170 182 193 202 213 213 219 217
192 195 196 190 190 191 191 193 194 199 197 195 195 195 192 186 181 184 195 194 177 177 186 175 177 188 197 210 218 220 224 230
193 197 199 196 197 196 195 193 197 196 194 194 196 199 198 195 196 215 201 185 180 179 173 171 176 182 193 209 222 228 229 231
193 197 197 199 199 199 197 196 198 195 195 196 199 196 196 195 207 206 189 190 189 179 173 176 175 176 186 196 204 210 219 226
193 205 205 205 202 199 199 199 197 197 196 195 200 199 200 200 201 189 186 186 185 181 178 177 165 168 170 172 176 183 188 200
199 204 210 208 201 200 201 201 199 202 196 196 203 203 203 206 199 190 188 189 186 183 178 179 168 166 163 158 161 167 164 169
193 202 209 207 204 203 203 204 202 202 197 199 205 207 204 208 199 197 193 192 189 188 184 178 170 165 164 164 166 164 161 158
195 196 206 208 208 206 206 205 204 202 201 202 205 206 206 207 202 197 195 194 192 192 187 182 174 171 171 169 167 163 158 156
199 195 202 206 212 209 207 207 206 203 205 205 207 210 208 206 203 201 196 193 193 194 191 189 182 175 176 172 171 165 160 157
190 192 199 206 211 210 208 209 206 205 207 209 210 213 209 206 207 204 200 195 196 194 194 195 190 182 181 179 176 172 166 160
187 191 199 209 212 212 210 209 209 211 210 211 212 215 208 208 209 208 203 200 198 198 197 196 194 189 186 188 184 179 172 166
190 195 197 205 208 210 211 211 213 212 211 211 213 211 206 209 208 209 204 202 200 200 201 197 195 194 194 192 189 185 179 175
194 195 197 204 206 206 207 209 211 209 207 208 208 204 205 207 208 207 205 202 202 201 201 202 200 200 195 194 195 192 187 183
197 202 205 210 207 205 202 202 203 202 202 203 202 202 204 204 206 205 205 204 203 203 203 204 203 203 199 199 197 195 194 195
196 212 212 214 209 206 203 201 197 198 198 200 201 202 202 203 205 206 206 205 206 207 206 206 205 204 203 203 202 201 201 202